Tracking 18843 objects as of 20-November-2017
HD Live streaming from Space Station
objects crossing your sky now

CZ-4C DEB

Track CZ-4C DEB now!
10-day predictions


NORAD ID: 39231
Int'l Code: 2013-037H
Perigee: 676.7 km
Apogee: 1,046.5 km
Inclination: 98.1 °
Period: 102.0 minutes
Semi major axis: 7232 km
RCS: Unknown
Launch date: July 19, 2013
Source: People's Republic of China (PRC)
Launch site: Taiyaun Space Center, China (TSC)

Note: This is SATELLITE DEBRIS
aabbcc
Your satellite tracking list
Your tracking list is empty




NASA's NSSDC Master Catalog

Two Line Element Set (TLE):
1 39231U 13037H   17323.94632817 +.00000267 +00000-0 +12619-3 0  9995
2 39231 098.1499 213.7243 0255650 309.6967 048.1914 14.11422488218176
Source of the keplerian elements: AFSPC